Regional Weather Roundup
Issued by NWS Green Bay, WI

Home | Current Version | Previous Version | Text Only | Print | Product List | Glossary On
Versions: 1 2 3 4 5 6 7 8 9 10 11 12 13 14 15 16 17 18 19 20 21 22 23 24 25 26 27 28 29 30 31 32 33 34 35 36 37 38 39 40 41 42 43 44 45 46 47 48 49 50
000
ASUS43 KGRB 202310
RWRGRB

NORTH-CENTRAL AND NORTHEAST WISCONSIN REGIONAL WEATHER ROUNDUP
NATIONAL WEATHER SERVICE GREEN BAY WI
600 PM CDT SUN APR 20 2014

WIZ005-009-010>012-018-019-210000-
NORTH CENTRAL WISCONSIN

CITY           SKY/WX    TMP DP  RH WIND       PRES   REMARKS
IRONWOOD       SUNNY     61  32  33 N7        29.97S
MANITOWISH WTR SUNNY     64  36  34 N9        29.98S
ARBOR VITAE    SUNNY     66  43  44 S8        29.99S
EAGLE RIVER    SUNNY     65  41  40 SW8       29.99S
LAND O LAKES   SUNNY     67  38  34 W5        29.99S
RHINELANDER    CLOUDY    60  49  66 S8        30.01S
PHILLIPS       SUNNY     68  48  50 S9        29.97F
ANTIGO         CLOUDY    55  50  83 S7        30.04S
TOMAHAWK       CLOUDY    59  49  70 CALM      30.02R
MERRILL        CLOUDY    57  51  82 CALM      30.02F
$$

WIZ013-073-210000-
NORTHEAST WISCONSIN

CITY           SKY/WX    TMP DP  RH WIND       PRES   REMARKS
IRON MOUNTAIN  CLOUDY    59  50  72 S7        29.99S
MARINETTE      CLOUDY    54  48  82 SW8       30.04S
OCONTO         CLOUDY    54  48  80 CALM      30.05S
$$

WIZ017-030-035>037-045-210000-
CENTRAL WISCONSIN

CITY           SKY/WX    TMP DP  RH WIND       PRES   REMARKS
MEDFORD        CLOUDY    56  52  88 S5        30.02F
WAUSAU         CLOUDY    58  51  78 S3        30.01F
MOSINEE        NOT AVBL
MARSHFIELD     CLOUDY    60  54  80 SW5       30.02S
WISC RAPIDS    CLOUDY    59  52  77 SW3       30.04F
STEVENS POINT  PTSUNNY   59  53  80 S5        30.03F
WAUPACA        PTSUNNY   61  54  77 S5        30.03F
SHAWANO        CLOUDY    58  50  75 CALM      30.05F
CLINTONVILLE   CLOUDY    59  52  77 CALM      30.04F
$$

WIZ038-039-048-051-210000-
FOX VALLEY

CITY           SKY/WX    TMP DP  RH WIND       PRES   REMARKS
NWS GREEN BAY  CLOUDY    57  51  80 S7        30.05S
APPLETON       PTSUNNY   57  54  88 S6        30.05F
OSHKOSH        CLOUDY    58  54  86 SE3       30.04F FOG
FOND DU LAC    CLOUDY    60  51  72 CALM      30.04F
$$

WIZ022-050-052-210000-
EAST CENTRAL WISCONSIN

CITY           SKY/WX    TMP DP  RH WIND       PRES   REMARKS
STURGEON BAY   CLOUDY    46  37  71 S8        30.06S
MANITOWOC      LGT RAIN  49  38  65 S5        30.07F
SHEBOYGAN      CLOUDY    56  39  53 CALM      30.06F
$$

LMZ563-521-522-541>543-210000-
LAKESHORE

STATION/POSITION TIME  TEMP    WIND        PRES    VSBY  WAVE
                       AIR SEA DIR/SP/G                  HT/PER
                 (UTC) (F)     (DEG/KT/KT) (MB)    (MI)  (FT/S)
SHEBOYGAN LKSHOR 2300   46     160/  5/  5 1018.4F
KEWAUNEE LKSHORE 2300   39     160/  7/  8 1018.8S
TWO RIVERS CG    2200   40                   N/A       6   1
NORTHPORT PIER   2300   43     140/  5/  7 1017.6S
SISTER BAY LKSHO 2300   47     180/  6/  7   N/A
MENOMINEE LKSHOR 2300   42     170/ 10/ 13 1018.0F
$$



USA.gov is the U.S. government's official web portal to all federal, state and local government web resources and services.